Regional Weather Roundup
Issued by NWS

Home | Current Version | Previous Version | Text Only | Print | Product List | Glossary On
Versions: 1 2 3 4 5 6 7 8 9 10 11 12 13 14 15 16 17 18 19 20 21 22 23 24 25 26 27 28 29 30 31 32 33 34 35 36 37 38 39 40 41 42 43 44 45 46 47 48 49 50
000
ASUS44 KMEG 270610
RWRTN
TENNESSEE HOURLY STATE WEATHER ROUNDUP
NATIONAL WEATHER SERVICE MEMPHIS TN
100 AM CDT SAT MAY 27 2017

TNZ002-004-019-021-049-052-054-088>092-270700-
WEST TENNESSEE

CITY           SKY/WX    TMP DP  RH WIND       PRES   REMARKS
MEMPHIS INTL   CLOUDY    78  69  73 S10       29.90F
NWS MEMPHIS      N/A     78 N/A N/A MISG        N/A
JACKSON        PTCLDY    76  67  73 SW9       29.90F
DYERSBURG        N/A    N/A N/A N/A MISG        N/A
COVINGTON      PTCLDY    75  68  78 S5        29.88F
UNION CITY     CLOUDY    75  68  78 CALM      29.87F
BOLIVAR        MOCLDY    75  66  73 S6        29.91F
PARIS          CLOUDY    72  66  83 S5        29.89S
HUNTINGDON     CLOUDY    75  64  69 CALM      29.89F
LEXINGTON      CLOUDY    72  63  73 MISG      29.91F
SELMER         CLOUDY    75  63  64 CALM      29.92F
SAVANNAH       CLOUDY    72  64  78 CALM      29.92F
$$

TNZ008-025-027-028-033-062-065-066-270700-
NORTH MIDDLE TENNESSEE

CITY           SKY/WX    TMP DP  RH WIND       PRES   REMARKS
NASHVILLE      CLOUDY    75  62  64 S9        29.93S
PORTLAND       CLOUDY   N/A N/A N/A S8        29.92S
CLARKSVILLE    CLOUDY    75  60  59 S8        29.90S
SMYRNA         CLOUDY    72  63  73 S5        29.95S
COOKEVILLE     CLOUDY    72  61  68 SW6       29.96F
GALLATIN       CLOUDY    75  63  64 CALM      29.95S
CROSSVILLE     MOCLDY    66  58  75 CALM      30.02F
$$

TNZ061-075-076-078-094-096-097-270700-
SOUTH MIDDLE TENNESSEE

CITY           SKY/WX    TMP DP  RH WIND       PRES   REMARKS
FAYETTEVILLE   MOCLDY    72  63  73 S6        29.98S
TULLAHOMA      CLOUDY    66  61  82 S5        30.00S
WINCHESTER     CLEAR     64  61  88 CALM        N/A
MCMINNVILLE    CLOUDY    72  61  68 CALM      29.98F
COLUMBIA       CLOUDY    72  63  73 SW9       29.92F
SHELBYVILLE    CLOUDY    70  64  83 S7        29.96F
$$

TNZ017-018-042-046-047-270700-
NORTHEAST TENNESSEE

CITY           SKY/WX    TMP DP  RH WIND       PRES   REMARKS
TRI CITIES     CLOUDY    60  58  92 CALM      30.02F
ELIZABETHTON   CLOUDY    59  55  88 CALM      30.04S
$$

TNZ012-013-036-069-073-074-270700-
CENTRAL EAST TENNESSEE

CITY           SKY/WX    TMP DP  RH WIND       PRES   REMARKS
KNOXVILLE      MOCLDY    69  60  73 SW8       29.99F
OAK RIDGE      MOCLDY    66  62  87 CALM      30.00F
DOWNTOWN KNOXV CLOUDY    64  63  94 CALM      29.99F
GATLINBURG     MOCLDY    63  59  88 CALM      29.99F
MORRISTOWN     CLOUDY    66  61  82 CALM      30.00S
JACKSBORO      CLOUDY    64  63  94 CALM      30.02S
$$

TNZ083-085-099-270700-
SOUTHEAST TENNESSEE

CITY           SKY/WX    TMP DP  RH WIND       PRES   REMARKS
CHATTANOOGA    CLEAR     68  62  81 CALM      30.00S
$$

SKY/WX REPORTED AS FAIR MEANS FEW OR NO CLOUDS BELOW
12 THOUSAND FEET.




USA.gov is the U.S. government's official web portal to all federal, state and local government web resources and services.